Location: ????????
(56.0167°N, 38.0333°E)
Time: 07:52:39
(UTC+00:00)

Cosmos 1933 Rocket - Pass Details

Date: 19 May 2025
Orbit: 601 x 623 km, 82.5° (Epoch: 24 June)

Event Time Altitude Azimuth Distance (km) Brightness Sun altitude
Rises 22:55:33 0° 344° (NNW) 2,920 7.9 -11.6°
Reaches altitude 10° 22:57:50 10° 340° (NNW) 2,010 6.9 -11.5°
Maximum altitude 23:02:09 51° 265° (W) 796 3.9 -11.2°
Enters shadow 23:05:35 15° 193° (SSW) 1,675 5.1 -11.0°
